Location: Brno
(49.2000°N, 16.6330°E)
Time: 13:38:07
(UTC+02:00)

Tiros 1 - All Passes

Search period start: 04 August 2021 00:00
Search period end: 14 August 2021 00:00
Orbit: 630 x 664 km, 48.4° (Epoch: 03 August)

Date Brightness Start Highest point End Pass type
(mag) Time Alt. Az. Time Alt. Az. Time Alt. Az.
04 Aug - 00:24:08 10° W 00:27:14 18° SW 00:30:20 10° S visible
04 Aug - 16:22:47 10° SSE 16:24:17 11° SE 16:25:47 10° ESE daylight
04 Aug - 18:01:06 10° SW 18:05:33 39° SSE 18:09:59 10° E daylight
04 Aug - 19:42:42 10° WSW 19:47:29 78° S 19:52:14 10° E daylight
04 Aug - 21:24:54 10° W 21:29:40 73° S 21:34:21 10° ESE visible
04 Aug - 23:07:15 10° W 23:11:29 33° SSW 23:15:40 10° SSE visible
05 Aug - 16:46:03 10° SSW 16:49:42 22° SE 16:53:22 10° E daylight
05 Aug - 18:26:37 10° WSW 18:31:19 59° SSE 18:36:01 10° E daylight
05 Aug - 20:08:38 10° W 20:13:26 83° S 20:18:11 10° E daylight
05 Aug - 21:50:52 10° W 21:55:31 54° SSW 22:00:07 10° SE visible
05 Aug - 23:33:44 10° W 23:37:02 19° SW 23:40:18 10° S visible
06 Aug - 15:33:16 10° SE 15:34:05 10° SE 15:34:54 10° ESE daylight
06 Aug - 17:10:54 10° SW 17:15:18 37° SSE 17:19:42 10° E daylight
06 Aug - 18:52:25 10° WSW 18:57:13 76° S 19:01:59 10° E daylight
06 Aug - 20:34:36 10° W 20:39:23 75° S 20:44:07 10° ESE daylight
06 Aug - 22:16:57 10° W 22:21:15 35° SSW 22:25:30 10° SE visible
07 Aug - 15:55:57 10° S 15:59:29 21° SE 16:03:01 10° E daylight
07 Aug - 17:36:22 10° WSW 17:41:03 56° SSE 17:45:45 10° E daylight
07 Aug - 19:18:21 10° W 19:23:10 83° S 19:27:56 10° E daylight
07 Aug - 21:00:35 10° W 21:05:16 57° SSW 21:09:53 10° ESE visible
07 Aug - 22:43:21 10° W 22:46:49 20° SW 22:50:15 10° S visible
08 Aug - 16:20:42 10° SW 16:25:04 35° SSE 16:29:25 10° E daylight
08 Aug - 18:02:08 10° WSW 18:06:57 75° SSE 18:11:43 10° E daylight
08 Aug - 19:44:20 10° W 19:49:07 76° S 19:53:52 10° ESE daylight
08 Aug - 21:26:39 10° W 21:31:01 37° SSW 21:35:21 10° SE visible
08 Aug - 23:11:43 10° SW 23:12:12 10° SW 23:12:42 10° SW visible
09 Aug - 15:05:52 10° S 15:09:16 19° SE 15:12:39 10° E daylight
09 Aug - 16:46:07 10° SW 16:50:48 54° SSE 16:55:29 10° E daylight
09 Aug - 18:28:04 10° W 18:32:54 83° S 18:37:40 10° E daylight
09 Aug - 20:10:18 10° W 20:15:00 59° SSW 20:19:40 10° ESE daylight
09 Aug - 21:52:59 10° W 21:56:36 22° SW 22:00:11 10° SSE visible
10 Aug - 15:30:31 10° SSW 15:34:49 33° SSE 15:39:07 10° E daylight
10 Aug - 17:11:52 10° WSW 17:16:40 73° SSE 17:21:27 10° E daylight
10 Aug - 18:54:02 10° W 18:58:51 78° S 19:03:37 10° ESE daylight
10 Aug - 20:36:20 10° W 20:40:47 39° SSW 20:45:10 10° SE daylight
10 Aug - 22:20:36 10° WSW 22:22:01 11° SW 22:23:24 10° SSW visible
11 Aug - 14:15:48 10° S 14:19:03 18° SE 14:22:17 10° E daylight
11 Aug - 15:55:52 10° SW 16:00:32 52° SSE 16:05:13 10° E daylight
11 Aug - 17:37:47 10° W 17:42:37 83° S 17:47:25 10° E daylight
11 Aug - 19:20:01 10° W 19:24:45 61° SSW 19:29:26 10° ESE daylight
11 Aug - 21:02:38 10° W 21:06:23 23° SW 21:10:06 10° SSE visible
12 Aug - 14:40:20 10° SSW 14:44:35 31° SSE 14:48:49 10° E daylight
12 Aug - 16:21:36 10° WSW 16:26:24 71° SSE 16:31:11 10° E daylight
12 Aug - 18:03:45 10° W 18:08:34 79° S 18:13:22 10° ESE daylight
12 Aug - 19:46:02 10° W 19:50:32 41° SSW 19:54:59 10° SE daylight
12 Aug - 21:29:55 10° WSW 21:31:49 12° SW 21:33:42 10° SSW visible
13 Aug - 13:25:46 10° S 13:28:49 17° SE 13:31:53 10° E daylight
13 Aug - 15:05:38 10° SW 15:10:17 50° SSE 15:14:56 10° E daylight
13 Aug - 16:47:30 10° W 16:52:20 82° S 16:57:09 10° E daylight
13 Aug - 18:29:43 10° W 18:34:29 63° SSW 18:39:12 10° ESE daylight
13 Aug - 20:12:16 10° W 20:16:09 25° SW 20:20:00 10° SSE daylight
